This is the latest recevied weather packets stored in our database for station/object N9WHM. If no packets are shown the sender has not sent any weather packets the latest 10 day(s).
| Time | Temp. | Humidity | Pressure | Rain* | Wind** | Luminosity | Snow |
|---|---|---|---|---|---|---|---|
| 1777489539 | 14.44° C | 37% | 1019.7 hPa | 0 mm | - | 791 W/m² | - |
| 1777489237 | 14.44° C | 36% | 1019.6 hPa | 0 mm | - | 271 W/m² | - |
| 1777488933 | 13.89° C | 40% | 1019.6 hPa | 0 mm | - | 814 W/m² | - |
| 1777488631 | 13.89° C | 36% | 1019.6 hPa | 0 mm | - | 803 W/m² | - |
| 1777488328 | 14.44° C | 35% | 1019.8 hPa | 0 mm | - | 778 W/m² | - |
| 1777488026 | 13.89° C | 37% | 1019.8 hPa | 0 mm | - | 775 W/m² | - |
| 1777487724 | 13.89° C | 36% | 1020 hPa | 0 mm | - | 773 W/m² | - |
| 1777487422 | 13.89° C | 38% | 1019.8 hPa | 0 mm | - | 635 W/m² | - |
| 1777487119 | 13.89° C | 38% | 1020 hPa | 0 mm | - | 770 W/m² | - |
| 1777486814 | 13.89° C | 38% | 1020.2 hPa | 0 mm | - | 777 W/m² | - |
| 1777486512 | 13.89° C | 37% | 1020.2 hPa | 0 mm | - | 723 W/m² | - |
| 1777486209 | 13.89° C | 44% | 1020.5 hPa | 0 mm | - | 792 W/m² | - |
| 1777485907 | 13.89° C | 39% | 1020.4 hPa | 0 mm | - | 806 W/m² | - |
| 1777485602 | 13.89° C | 38% | 1020.6 hPa | 0 mm | - | 213 W/m² | - |
| 1777485298 | 13.33° C | 40% | 1020.5 hPa | 0 mm | - | 178 W/m² | - |
| 1777484995 | 12.78° C | 42% | 1020.5 hPa | 0 mm | - | 776 W/m² | - |
| 1777484692 | 12.78° C | 39% | 1020.8 hPa | 0 mm | - | 755 W/m² | - |
| 1777484388 | 13.33° C | 39% | 1020.8 hPa | 0 mm | - | 752 W/m² | - |
| 1777484084 | 13.33° C | 41% | 1021.2 hPa | 0 mm | - | 746 W/m² | - |
| 1777483780 | 13.33° C | 39% | 1020.9 hPa | 0 mm | - | 741 W/m² | - |
| 1777483478 | 12.78° C | 36% | 1021 hPa | 0 mm | - | 749 W/m² | - |
| 1777483173 | 12.78° C | 39% | 1020.9 hPa | 0 mm | - | 745 W/m² | - |
| 1777482870 | 12.22° C | 46% | 1021 hPa | 0 mm | - | 717 W/m² | - |
| 1777482565 | 12.78° C | 48% | 1021.2 hPa | 0 mm | - | 714 W/m² | - |
| 1777482263 | 12.22° C | 48% | 1021.3 hPa | 0 mm | - | 716 W/m² | - |
* Rain latest hour (hover to see other rain measurements)
** Current wind speed in m/s (hover to see current wind gust speed)